1502096400.2,50291,20.0,74328.3,3.37,2.89,3.11,0,*75
1502096401.41,50292,20.0,74328.5,3.35,2.99,3.15,0,*71
1502096402.64,50293,20.06,74334.5,3.37,2.81,2.99,0,*7E
1502096403.87,50294,20.0,74330.5,3.35,2.77,2.81,0,*7B
1502096405.13,50295,20.0,74334.3,3.37,2.89,3.03,0,*72
1502096406.36,50296,20.0,74328.5,3.37,2.89,2.99,0,*73
1502096407.56,50297,20.0,74330.0,3.35,2.89,2.99,0,*70
1502096408.79,50298,20.0,74336.8,3.37,2.65,2.77,0,*7F
1502096409.98,50299,20.0,74334.3,3.35,2.61,2.65,0,*7B
1502096411.21,50300,20.0,74332.5,3.37,2.61,2.69,0,*74
1502096412.43,50301,20.0,74330.8,3.37,2.61,2.69,0,*75
1502096413.69,50302,20.0,74332.0,3.37,2.77,2.81,0,*77
1502096414.92,50303,20.0,74330.3,3.39,2.69,2.81,0,*77
1502096416.15,50304,20.0,74330.0,3.37,2.55,2.65,0,*7B
1502096417.36,50305,20.0,74334.5,3.37,2.99,2.99,0,*79
1502096418.61,50306,20.0,74330.5,3.37,3.11,3.23,0,*7B
1502096419.84,50307,20.0,74330.8,3.35,3.03,3.23,0,*7B
1502096421.05,50308,20.0,74328.3,3.37,2.91,2.99,0,*7C
1502096422.3,50309,20.0,74330.8,3.37,3.03,3.23,0,*77
1502096423.53,50310,20.0,74328.8,3.37,2.99,3.11,0,*7C
1502096424.76,50311,20.0,74326.8,3.37,2.99,3.11,0,*7D
1502096425.97,50312,20.0,74328.3,3.39,2.95,3.03,0,*7F
1502096427.19,50313,20.0,74330.0,3.39,3.07,3.19,0,*7F
1502096428.38,50314,20.0,74328.8,3.39,3.25,3.29,0,*7B
1502096429.61,50315,20.0,74328.0,3.41,2.95,3.15,0,*70
1502096430.84,50316,20.0,74328.0,3.39,3.03,3.07,0,*71
1502096432.05,50317,20.0,74326.5,3.39,2.95,3.03,0,*7A
1502096433.28,50318,20.0,74326.0,3.39,3.07,3.19,0,*74
1502096434.49,50319,20.0,74326.0,3.41,3.25,3.29,0,*79
1502096435.7,50320,20.0,74326.5,3.41,3.29,3.29,0,*7F
1502096436.94,50321,20.0,74328.5,3.41,3.29,3.41,0,*70
1502096438.2,50322,20.0,74330.0,3.41,3.37,3.45,0,*78
1502096439.46,50323,20.0,74330.8,3.41,3.37,3.41,0,*7D
1502096440.72,50324,20.0,74332.0,3.41,3.37,3.41,0,*7A
1502096441.93,50325,20.0,74330.5,3.41,3.25,3.25,0,*7A
1502096443.14,50326,20.0,74330.8,3.43,3.23,3.29,0,*71
1502096444.41,50327,20.0,74332.0,3.41,3.07,3.15,0,*7B
1502096445.62,50328,20.0,74334.0,3.43,3.11,3.29,0,*7E
1502096446.85,50329,20.0,74330.8,3.43,3.07,3.19,0,*7B
1502096448.04,50330,20.0,74334.0,3.43,2.85,2.95,0,*7D
1502096449.24,50331,20.0,74330.0,3.43,2.89,2.99,0,*7C
1502096450.47,50332,20.0,74332.8,3.43,2.77,2.85,0,*73
1502096451.69,50333,20.0,74332.8,3.43,2.73,2.85,0,*76
1502096452.89,50334,20.0,74336.0,3.43,2.85,2.99,0,*75
1502096454.11,50335,20.0,74332.3,3.45,2.85,2.95,0,*7E
1502096455.34,50336,20.0,74332.8,3.43,2.73,2.77,0,*7E
1502096456.52,50337,20.0,74328.5,3.43,2.61,2.61,0,*7B
1502096457.74,50338,20.0,74330.5,3.43,2.73,2.85,0,*7D
1502096458.99,50339,20.0,74324.3,3.41,2.69,2.69,0,*77
1502096460.23,50340,20.0,74324.8,3.41,2.65,2.69,0,*75
1502096461.44,50341,20.0,74328.8,3.41,2.91,2.95,0,*7C
1502096462.64,50342,20.0,74328.0,3.39,2.95,3.03,0,*7A
1502096463.85,50343,20.06,74334.8,3.41,3.25,3.25,0,*7A
1502096465.08,50344,20.0,74330.3,3.41,2.85,2.95,0,*7C
1502096466.31,50345,20.0,74330.8,3.41,2.85,2.95,0,*7D
1502096467.54,50346,20.0,74328.0,3.41,2.81,2.91,0,*7E
1502096468.74,50347,20.0,74328.3,3.43,2.95,3.07,0,*76
1502096469.94,50348,20.0,74328.3,3.43,2.95,3.07,0,*79
1502096471.14,50349,20.0,74330.3,3.43,2.85,2.95,0,*73
1502096472.39,50350,20.06,74334.3,3.41,2.69,2.69,0,*78
1502096473.66,50351,20.0,74330.0,3.41,2.69,2.81,0,*7F
1502096474.89,50352,20.0,74332.8,3.41,2.65,2.69,0,*76
1502096476.07,50353,20.0,74330.3,3.43,2.61,2.61,0,*79
1502096477.29,50354,20.0,74334.5,3.41,2.65,2.65,0,*7C
1502096478.54,50355,20.0,74334.0,3.41,2.73,2.81,0,*70
1502096479.8,50356,20.0,74336.8,3.41,2.85,2.85,0,*7E
1502096481.0,50357,20.0,74334.8,3.41,2.91,2.91,0,*7F
1502096482.18,50358,20.0,74336.5,3.39,2.91,2.91,0,*7F
1502096483.39,50359,20.0,74334.0,3.41,2.91,2.91,0,*71
1502096484.6,50360,20.0,74332.3,3.41,2.95,2.95,0,*7B
1502096485.86,50361,20.0,74330.3,3.41,3.07,3.07,0,*7A
1502096487.11,50362,20.0,74332.0,3.41,3.19,3.19,0,*79
1502096488.35,50363,20.0,74332.0,3.41,2.95,3.15,0,*71
1502096489.55,50364,20.0,74336.8,3.41,2.91,2.95,0,*7B
1502096490.75,50365,20.0,74334.8,3.43,2.85,2.95,0,*7D
1502096491.95,50366,20.0,74330.5,3.43,2.85,2.99,0,*72
1502096493.18,50367,20.0,74332.3,3.43,2.89,3.07,0,*79
1502096494.38,50368,20.0,74334.3,3.43,2.95,3.11,0,*7C
1502096495.58,50369,20.0,74332.3,3.43,2.95,3.07,0,*7A
1502096496.78,50370,20.0,74332.8,3.43,2.99,3.11,0,*79
1502096498.01,50371,20.0,74334.5,3.43,2.89,3.07,0,*7E
1502096499.21,50372,20.0,74336.0,3.43,2.77,2.99,0,*7A
1502096500.41,50373,20.0,74334.8,3.43,2.73,2.95,0,*73
1502096501.65,50374,20.0,74334.0,3.45,2.73,2.85,0,*73
1502096502.85,50375,20.06,74332.8,3.43,2.77,2.95,0,*71
1502096504.05,50376,20.0,74330.8,3.43,2.89,2.99,0,*7F
1502096505.25,50377,20.0,74330.5,3.43,2.73,2.95,0,*77
1502096506.48,50378,20.06,74334.0,3.45,2.61,2.73,0,*75
1502096507.71,50379,20.06,74334.8,3.43,2.51,2.59,0,*79
1502096508.95,50380,20.0,74328.8,3.41,2.31,2.43,0,*70
1502096510.18,50381,20.0,74332.0,3.43,2.51,2.51,0,*76
1502096511.41,50382,20.0,74334.8,3.41,2.25,2.31,0,*72
1502096512.64,50383,20.06,74336.8,3.39,2.47,2.55,0,*7A
1502096513.82,50384,20.06,74334.8,3.39,2.31,2.35,0,*7A
1502096515.07,50385,20.0,74334.5,3.41,2.25,2.43,0,*70
1502096516.31,50386,20.0,74332.0,3.41,2.55,2.65,0,*70
1502096517.51,50387,20.0,74334.0,3.39,2.65,2.69,0,*71
1502096518.77,50388,20.0,74336.3,3.41,2.69,2.73,0,*76
1502096520.02,50389,20.0,74334.3,3.41,2.55,2.69,0,*73
1502096521.22,50390,20.0,74338.5,3.39,2.85,2.95,0,*7A
1502096522.45,50391,20.0,74336.5,3.41,2.85,2.95,0,*74
1502096523.65,50392,20.0,74334.5,3.39,2.69,2.91,0,*7E
1502096524.91,50393,20.0,74332.0,3.41,2.43,2.55,0,*70
1502096526.17,50394,20.0,74332.5,3.41,2.47,2.59,0,*7F
1502096527.37,50395,20.0,74336.8,3.39,2.65,2.73,0,*79
1502096528.63,50396,20.0,74338.8,3.41,2.69,2.73,0,*79
1502096529.86,50397,20.0,74332.3,3.41,2.81,2.91,0,*72
1502096531.09,50398,20.0,74334.0,3.41,2.81,2.91,0,*7D
1502096532.3,50399,20.0,74336.0,3.39,2.47,2.65,0,*72
1502096533.5,50400,20.0,74330.5,3.39,2.35,2.47,0,*70
1502096534.7,50401,20.06,74334.0,3.39,2.25,2.35,0,*75
1502096535.9,50402,20.06,74334.5,3.39,2.25,2.35,0,*76
1502096537.16,50403,20.0,74330.0,3.41,2.43,2.47,0,*7D
1502096538.36,50404,20.0,74332.3,3.39,2.13,2.35,0,*75
1502096539.58,50405,20.0,74330.5,3.37,2.21,2.31,0,*7F
1502096540.84,50406,20.0,74330.8,3.37,2.21,2.39,0,*74
1502096542.09,50407,20.0,74330.0,3.37,2.43,2.55,0,*7B
1502096543.33,50408,20.0,74328.5,3.37,2.51,2.65,0,*74
1502096544.56,50409,20.0,74330.3,3.37,2.27,2.39,0,*7D
1502096545.81,50410,20.0,74332.5,3.37,2.21,2.39,0,*73
1502096547.04,50411,20.0,74332.3,3.37,2.17,2.31,0,*7F
1502096548.24,50412,20.0,74332.3,3.37,2.27,2.31,0,*7F
1502096549.44,50413,20.06,74334.0,3.35,2.21,2.31,0,*7A
1502096550.65,50414,20.0,74328.5,3.35,2.27,2.39,0,*73
1502096551.88,50415,20.06,74332.3,3.35,2.55,2.69,0,*72
1502096553.09,50416,20.0,74332.5,3.35,2.65,2.81,0,*74
1502096554.3,50417,20.0,74330.5,3.35,2.61,2.69,0,*77
1502096555.53,50418,20.06,74334.8,3.35,2.77,2.81,0,*79
1502096556.74,50419,20.06,74334.0,3.35,2.65,2.69,0,*7D
1502096557.94,50420,20.0,74330.0,3.35,2.27,2.39,0,*74
1502096559.16,50421,20.0,74328.3,3.35,2.51,2.61,0,*79
1502096560.38,50422,20.0,74328.3,3.35,2.51,2.61,0,*7A
1502096561.61,50423,20.06,74336.3,3.35,2.39,2.51,0,*76
1502096562.84,50424,20.0,74328.8,3.35,2.51,2.55,0,*7B
1502096564.06,50425,20.0,74330.0,3.35,2.51,2.61,0,*7D
1502096565.25,50426,20.0,74330.0,3.35,2.61,2.61,0,*7D
1502096566.49,50427,20.0,74330.5,3.33,2.59,2.65,0,*75
1502096567.69,50428,20.0,74330.8,3.35,2.89,2.91,0,*7A
1502096568.93,50429,20.0,74330.8,3.37,2.65,2.81,0,*7A
1502096570.13,50430,20.0,74332.5,3.35,2.55,2.65,0,*79
1502096571.4,50431,20.0,74332.5,3.33,2.59,2.73,0,*75
1502096572.65,50432,20.0,74334.3,3.33,2.73,2.85,0,*77
1502096573.91,50433,20.06,74332.5,3.33,2.77,2.89,0,*7E
1502096575.14,50434,20.0,74334.3,3.37,2.81,2.91,0,*7D
1502096576.34,50435,20.0,74332.5,3.35,2.77,2.91,0,*77
1502096577.54,50436,20.0,74332.0,3.35,2.89,2.99,0,*7D
1502096578.75,50437,20.06,74334.8,3.35,2.81,2.99,0,*74
1502096579.98,50438,20.06,74336.5,3.35,2.89,3.11,0,*72
1502096581.21,50439,20.0,74334.0,3.37,2.51,2.65,0,*76
1502096582.47,50440,20.06,74336.3,3.37,2.51,2.55,0,*7B
1502096583.71,50441,20.0,74332.0,3.37,2.51,2.61,0,*7D
1502096584.9,50442,20.0,74332.3,3.35,2.31,2.61,0,*7A
1502096586.13,50443,20.0,74334.0,3.35,2.39,2.43,0,*73
1502096587.36,50444,20.0,74330.8,3.35,2.39,2.55,0,*73
1502096588.59,50445,20.0,74330.5,3.35,2.55,2.69,0,*77
1502096589.8,50446,20.0,74332.3,3.35,2.61,2.81,0,*75
1502096591.01,50447,20.06,74334.5,3.35,2.51,2.65,0,*7D
1502096592.27,50448,20.0,74328.5,3.33,2.39,2.59,0,*75
1502096593.51,50449,20.0,74330.8,3.33,2.27,2.39,0,*7D
1502096594.74,50450,20.0,74328.3,3.33,2.35,2.51,0,*78
1502096595.95,50451,20.0,74330.8,3.35,2.31,2.55,0,*7F
1502096597.15,50452,20.0,74330.3,3.35,2.61,2.69,0,*76
1502096598.37,50453,20.0,74332.8,3.31,2.73,2.95,0,*73
1502096599.6,50454,20.0,74332.5,3.33,2.77,2.99,0,*7E
1502096600.86,50455,20.0,74334.5,3.33,2.73,2.89,0,*7A
1502096602.07,50456,20.0,74334.3,3.35,2.55,2.65,0,*79
1502096603.27,50457,20.0,74332.0,3.35,2.61,2.69,0,*73
1502096604.48,50458,20.0,74330.8,3.35,2.61,2.77,0,*73
1502096605.69,50459,20.0,74330.0,3.35,2.61,2.77,0,*72
1502096606.92,50460,20.0,74330.3,3.35,2.39,2.55,0,*75
1502096608.15,50461,20.0,74326.8,3.35,2.43,2.55,0,*79
1502096609.38,50462,20.0,74328.5,3.31,2.31,2.47,0,*78
1502096610.64,50463,20.06,74332.5,3.33,2.17,2.39,0,*76
1502096611.86,50464,20.06,74338.8,3.31,2.21,2.35,0,*7A
1502096613.08,50465,20.0,74332.3,3.31,2.31,2.47,0,*7F
1502096614.31,50466,20.06,74334.8,3.31,2.31,2.47,0,*7C
1502096615.54,50467,20.06,74330.8,3.33,2.35,2.39,0,*72
1502096616.79,50468,20.06,74328.5,3.31,2.21,2.43,0,*77
1502096618.04,50469,20.0,74322.5,3.31,2.55,2.55,0,*72
1502096619.29,50470,20.06,74318.5,3.31,2.59,2.73,0,*72
1502096620.52,50471,20.06,74320.8,3.31,2.35,2.59,0,*71
1502096621.75,50472,20.0,74318.5,3.33,2.61,2.77,0,*7D
1502096622.98,50473,20.06,74324.3,3.31,2.61,2.73,0,*7A
1502096624.21,50474,20.0,74322.3,3.33,2.61,2.73,0,*7F
1502096625.42,50475,20.06,74322.8,3.33,2.35,2.61,0,*7C
1502096626.68,50476,20.0,74318.3,3.31,2.43,2.59,0,*77
1502096627.93,50477,20.06,74326.0,3.31,2.55,2.73,0,*79
1502096629.19,50478,20.0,74322.0,3.33,2.47,2.59,0,*7F
1502096630.41,50479,20.06,74326.0,3.31,2.31,2.47,0,*72
1502096631.67,50480,20.06,74324.3,3.31,2.01,2.13,0,*76
1502096632.92,50481,20.06,74326.8,3.31,2.09,2.25,0,*7A
1502096634.16,50482,20.06,74324.8,3.31,1.97,2.21,0,*79
1502096635.38,50483,20.06,74328.8,3.31,2.13,2.31,0,*76
1502096636.61,50484,20.0,74326.8,3.31,2.31,2.43,0,*74
1502096637.86,50485,20.0,74328.8,3.31,2.21,2.25,0,*74
1502096639.09,50486,20.06,74330.5,3.29,2.09,2.13,0,*71
1502096640.32,50487,20.0,74328.3,3.27,1.83,1.85,0,*73
1502096641.54,50488,20.06,74328.0,3.27,1.75,1.85,0,*75
1502096642.79,50489,20.06,74330.8,3.27,1.59,1.67,0,*76
1502096644.04,50490,20.0,74328.3,3.27,1.85,1.93,0,*74
1502096645.26,50491,20.06,74330.8,3.25,1.93,2.05,0,*7C
1502096646.46,50492,20.06,74328.5,3.21,1.79,1.89,0,*78
1502096647.68,50493,20.06,74330.3,3.21,1.89,2.01,0,*75
1502096648.87,50494,20.06,74334.5,3.21,1.79,1.89,0,*7E
1502096650.11,50495,20.06,74332.0,3.21,1.93,2.13,0,*7B
1502096651.27,50496,20.0,74328.8,3.25,2.27,2.31,0,*70
1502096652.5,50497,20.0,74330.0,3.21,2.25,2.39,0,*7F
1502096653.68,50498,20.06,74334.5,3.21,2.27,2.35,0,*7E
1502096654.88,50499,20.0,74328.8,3.21,2.27,2.39,0,*73
1502096656.09,50500,20.06,74330.3,3.21,2.17,2.27,0,*7E
1502096657.32,50501,20.06,74330.3,3.21,1.93,2.13,0,*77
1502096658.55,50502,20.0,74330.5,3.21,1.55,1.71,0,*79
1502096659.77,50503,20.06,74330.8,3.21,2.13,2.25,0,*7B
1502096660.99,50504,20.0,74326.5,3.19,2.13,2.27,0,*75
1502096662.22,50505,20.06,74328.5,3.19,2.25,2.35,0,*72
1502096663.46,50506,20.0,74330.0,3.19,1.89,2.05,0,*77
1502096664.69,50507,20.06,74326.5,3.19,1.71,1.83,0,*7C
1502096665.89,50508,20.06,74328.8,3.17,1.63,1.75,0,*77
1502096667.11,50509,20.0,74328.8,3.19,1.79,1.89,0,*70
1502096668.34,50510,20.06,74328.3,3.17,1.97,2.09,0,*7D
1502096669.54,50511,20.06,74328.0,3.17,2.13,2.31,0,*78
1502096670.77,50512,20.0,74324.8,3.17,1.97,2.09,0,*7F
1502096672.0,50513,20.0,74326.8,3.17,1.97,2.09,0,*7E
1502096673.22,50514,20.06,74328.3,3.17,1.85,1.97,0,*7E
1502096674.43,50515,20.06,74330.3,3.17,1.79,1.85,0,*7F
1502096675.63,50516,20.06,74328.5,3.15,1.83,1.83,0,*7D
1502096676.88,50517,20.06,74332.0,3.15,1.93,2.09,0,*7C
1502096678.13,50518,20.0,74328.8,3.15,2.05,2.17,0,*70
1502096679.37,50519,20.06,74334.3,3.15,2.47,2.55,0,*71
1502096680.62,50520,20.06,74332.8,3.15,2.47,2.59,0,*77
1502096681.88,50521,20.06,74334.3,3.15,2.43,2.59,0,*72
1502096683.12,50522,20.06,74334.8,3.15,2.43,2.47,0,*7E
1502096684.37,50523,20.06,74334.5,3.15,2.55,2.59,0,*77
1502096685.59,50524,20.0,74330.5,3.15,2.65,2.69,0,*70
1502096686.8,50525,20.06,74332.8,3.17,2.61,2.73,0,*7C
1502096688.01,50526,20.06,74328.0,3.17,2.51,2.61,0,*7F
1502096689.24,50527,20.06,74334.5,3.17,2.47,2.59,0,*72
1502096690.47,50528,20.0,74332.3,3.19,2.65,2.77,0,*7F
1502096691.7,50529,20.06,74332.8,3.19,2.65,2.77,0,*7E
1502096692.92,50530,20.0,74328.5,3.19,2.61,2.73,0,*76
1502096694.15,50531,20.06,74332.3,3.19,2.27,2.39,0,*7B
1502096695.38,50532,20.06,74334.3,3.19,2.27,2.39,0,*78
1502096696.58,50533,20.06,74332.3,3.17,2.35,2.47,0,*7D
1502096697.78,50534,20.0,74334.0,3.17,2.31,2.43,0,*7A
1502096699.01,50535,20.06,74334.0,3.19,2.35,2.39,0,*7C
1502096700.23,50536,20.0,74334.3,3.17,2.21,2.25,0,*79
1502096701.45,50537,20.06,74332.5,3.17,2.25,2.25,0,*7C
1502096702.68,50538,20.06,74336.0,3.17,2.01,2.13,0,*70
1502096703.9,50539,20.0,74334.8,3.17,2.21,2.21,0,*72
1502096705.1,50540,20.06,74334.5,3.17,2.21,2.31,0,*7D
1502096706.32,50541,20.06,74336.3,3.17,2.43,2.47,0,*79
1502096707.57,50542,20.06,74336.8,3.15,2.55,2.59,0,*70
1502096708.78,50543,20.0,74332.5,3.17,2.55,2.61,0,*78
1502096710.01,50544,20.06,74338.0,3.19,2.51,2.61,0,*75
1502096711.24,50545,20.0,74332.0,3.17,2.47,2.59,0,*76
1502096712.47,50546,20.0,74334.0,3.17,2.47,2.47,0,*7A
1502096713.67,50547,20.0,74332.8,3.17,2.61,2.73,0,*78
1502096714.92,50548,20.06,74334.3,3.19,2.73,2.77,0,*7E
1502096716.14,50549,20.06,74336.8,3.17,2.73,2.85,0,*7C
1502096717.37,50550,20.06,74340.3,3.21,2.51,2.55,0,*7C
1502096718.59,50551,20.06,74334.8,3.19,2.65,2.85,0,*7C
1502096719.82,50552,20.06,74338.3,3.19,2.65,2.85,0,*7F
1502096721.04,50553,20.06,74336.5,3.19,2.65,2.85,0,*7E
1502096722.27,50554,20.06,74338.5,3.19,2.61,2.77,0,*70
1502096723.5,50555,20.0,74334.8,3.19,2.65,2.89,0,*74
1502096724.75,50556,20.06,74338.3,3.19,2.51,2.55,0,*71
1502096725.98,50557,20.06,74332.5,3.21,2.55,2.77,0,*7F
1502096727.21,50558,20.06,74334.8,3.21,2.77,2.89,0,*71
1502096728.43,50559,20.06,74336.5,3.19,2.85,2.95,0,*7B
1502096729.65,50560,20.06,74334.0,3.25,2.43,2.59,0,*74
1502096730.86,50561,20.06,74336.8,3.21,2.35,2.51,0,*78
1502096732.06,50562,20.06,74334.8,3.21,2.25,2.35,0,*78
1502096733.31,50563,20.06,74334.0,3.19,2.05,2.25,0,*71
1502096734.54,50564,20.06,74338.3,3.21,2.05,2.13,0,*78
1502096735.74,50565,20.06,74332.3,3.21,2.25,2.35,0,*7F
1502096736.93,50566,20.06,74336.0,3.17,2.21,2.35,0,*7D
1502096738.18,50567,20.06,74334.3,3.19,2.39,2.47,0,*7E
1502096739.41,50568,20.06,74338.8,3.19,2.61,2.77,0,*7F
1502096740.63,50569,20.06,74332.3,3.19,2.27,2.47,0,*7F
1502096741.86,50570,20.06,74330.3,3.19,2.25,2.35,0,*70
1502096743.06,50571,20.0,74324.8,3.17,2.31,2.43,0,*7B
1502096744.31,50572,20.06,74330.5,3.19,2.55,2.73,0,*77
1502096745.52,50573,20.0,74326.3,3.21,2.65,2.77,0,*7A
1502096746.76,50574,20.06,74326.3,3.19,2.73,2.89,0,*70
1502096748.01,50575,20.06,74326.0,3.19,2.73,2.85,0,*7D
1502096749.23,50576,20.06,74328.5,3.19,2.65,2.85,0,*79
1502096750.47,50577,20.06,74326.0,3.19,2.51,2.61,0,*75
1502096751.72,50578,20.06,74326.5,3.19,2.47,2.51,0,*7E
1502096752.95,50579,20.06,74330.5,3.19,2.35,2.39,0,*74
1502096754.18,50580,20.06,74328.3,3.17,2.09,2.25,0,*7E
1502096755.4,50581,20.06,74332.0,3.19,1.83,2.01,0,*76
1502096756.6,50582,20.06,74332.8,3.17,1.75,1.85,0,*7D
1502096757.83,50583,20.06,74330.3,3.17,2.01,2.09,0,*7B
1502096759.06,50584,20.06,74330.8,3.17,1.97,2.09,0,*70
1502096760.24,50585,20.06,74326.0,3.17,1.79,1.79,0,*75
1502096761.45,50586,20.06,74326.0,3.17,1.79,1.85,0,*75
1502096762.69,50587,20.06,74320.8,3.15,1.85,1.93,0,*72
1502096763.9,50588,20.06,74316.8,3.13,1.75,1.85,0,*73
1502096765.12,50589,20.06,74326.3,3.13,1.97,1.59,0,*7F
1502096766.37,50590,20.06,74324.8,3.15,1.97,1.93,0,*77
1502096767.6,50591,20.06,74326.3,3.13,2.05,2.05,0,*74
1502096768.84,50592,20.06,74324.5,3.15,2.05,2.05,0,*71
1502096770.09,50593,20.0,74324.3,3.15,2.05,2.05,0,*70
1502096771.26,50594,20.06,74326.0,3.13,2.27,2.27,0,*71
1502096772.5,50595,20.06,74324.0,3.13,2.43,2.43,0,*70
1502096773.69,50596,20.06,74330.5,3.13,2.39,2.31,0,*7B
1502096774.92,50597,20.06,74330.0,3.13,2.39,2.39,0,*72
1502096776.16,50598,20.06,74328.0,3.13,2.17,2.05,0,*7E
1502096777.41,50599,20.06,74330.3,3.11,2.13,2.05,0,*79
1502096778.65,50600,20.06,74328.0,3.11,2.01,1.89,0,*7E
1502096779.85,50601,20.06,74332.8,3.11,1.79,1.79,0,*7C
1502096781.07,50602,20.06,74330.5,3.09,1.71,1.67,0,*71
1502096782.3,50603,20.06,74332.3,3.09,2.05,2.13,0,*70
1502096783.52,50604,20.06,74324.5,3.09,2.05,2.01,0,*74
1502096784.69,50605,20.06,74330.0,3.09,2.35,2.27,0,*72
1502096785.92,50606,20.06,74330.3,3.09,2.39,2.39,0,*72
1502096787.15,50607,20.06,74330.5,3.09,2.39,2.39,0,*73
1502096788.4,50608,20.06,74328.8,3.11,2.51,2.51,0,*75
1502096789.57,50609,20.06,74330.3,3.09,2.35,2.27,0,*7E
1502096790.77,50610,20.06,74334.0,3.09,2.61,2.55,0,*72
1502096792.0,50611,20.06,74336.3,3.09,2.13,2.13,0,*74
1502096793.22,50612,20.06,74332.0,3.09,2.25,2.25,0,*77
1502096794.44,50613,20.06,74330.5,3.09,2.05,2.05,0,*76
1502096795.62,50614,20.06,74332.3,3.09,1.79,1.79,0,*71
1502096796.84,50615,20.06,74332.5,3.09,1.71,1.67,0,*77
1502096798.09,50616,20.06,74334.3,3.07,1.67,1.67,0,*7D
1502096799.32,50617,20.0,74328.5,3.07,1.75,1.63,0,*7B
1502096800.55,50618,20.06,74332.3,3.05,2.09,2.01,0,*79
1502096801.77,50619,20.06,74332.0,3.05,1.89,1.85,0,*7C
1502096803.02,50620,20.06,74326.5,3.07,1.89,1.89,0,*78
1502096804.25,50621,20.06,74326.3,3.05,1.85,1.85,0,*7B
1502096805.48,50622,20.06,74322.8,3.01,2.05,2.13,0,*7B
1502096806.66,50623,20.06,74324.3,3.01,2.27,2.27,0,*7D
1502096807.89,50624,20.06,74322.3,3.01,2.55,2.43,0,*7D
1502096809.14,50625,20.0,74318.5,3.07,2.59,2.59,0,*7D
1502096810.37,50626,20.06,74322.5,3.05,2.73,2.73,0,*7C
1502096811.57,50627,20.06,74326.3,3.07,2.95,2.95,0,*7F
1502096812.81,50628,20.06,74326.5,3.05,2.81,2.73,0,*7F
1502096814.01,50629,20.06,74326.0,3.07,2.35,2.35,0,*71
1502096815.26,50630,20.06,74330.0,3.07,1.63,1.67,0,*7D
1502096816.48,50631,20.06,74326.8,3.05,1.89,1.97,0,*75
1502096817.71,50632,20.0,74324.8,3.05,2.01,2.01,0,*79
1502096818.93,50633,20.06,74330.3,3.05,1.51,1.47,0,*7F
1502096820.12,50634,20.06,74328.0,3.05,1.75,1.75,0,*7F
1502096821.35,50635,20.06,74328.0,3.05,2.01,2.01,0,*7E
1502096822.58,50636,20.06,74328.0,3.05,1.89,1.85,0,*71
1502096823.8,50637,20.06,74324.5,3.05,2.25,2.21,0,*78
1502096825.01,50638,20.06,74326.5,3.01,2.27,2.17,0,*74
1502096826.21,50639,20.06,74328.5,3.01,2.25,2.27,0,*74
1502096827.43,50640,20.06,74326.8,3.01,2.55,2.55,0,*78
1502096828.66,50641,20.0,74322.3,3.05,2.47,2.39,0,*74
1502096829.89,50642,20.06,74322.0,3.05,2.21,2.13,0,*7F
1502096831.07,50643,20.06,74326.0,3.05,2.35,2.35,0,*7F
1502096832.28,50644,20.06,74324.5,3.05,2.39,2.35,0,*74
1502096833.48,50645,20.06,74320.5,3.05,2.39,2.35,0,*75
1502096834.71,50646,20.0,74318.5,3.05,2.47,2.47,0,*7A
1502096835.92,50647,20.06,74320.5,3.05,2.35,2.39,0,*77
1502096837.16,50648,20.06,74322.8,3.05,2.51,2.51,0,*74
1502096838.39,50649,20.06,74324.3,3.05,2.39,2.39,0,*75
1502096839.62,50650,20.06,74324.3,3.05,2.73,2.73,0,*7D
1502096840.84,50651,20.06,74328.5,3.07,2.61,2.69,0,*76
1502096842.07,50652,20.06,74326.5,3.05,2.13,2.09,0,*74
1502096843.28,50653,20.06,74328.0,3.05,1.85,1.79,0,*7D
1502096844.52,50654,20.06,74326.5,3.07,1.85,1.79,0,*78
1502096845.74,50655,20.06,74328.0,3.05,2.21,2.21,0,*78
1502096846.95,50656,20.06,74332.5,3.05,2.35,2.39,0,*77
1502096848.15,50657,20.06,74330.3,3.01,2.39,2.27,0,*71
1502096849.33,50658,20.06,74330.8,3.01,1.83,1.83,0,*71
1502096850.55,50659,20.0,74326.8,3.01,1.55,1.47,0,*73
1502096851.77,50660,20.0,74326.8,3.01,1.67,1.71,0,*7D
1502096853.01,50661,20.06,74326.0,2.97,1.89,1.89,0,*75
1502096854.26,50662,20.06,74330.8,2.97,2.01,1.89,0,*75
1502096855.47,50663,20.06,74332.0,2.97,1.79,1.79,0,*77
1502096856.74,50664,20.06,74330.8,2.97,2.17,2.13,0,*74
1502096857.99,50665,20.06,74326.8,2.97,2.01,2.05,0,*75
1502096859.22,50666,20.0,74326.0,2.95,1.97,1.97,0,*70
1502096860.44,50667,20.06,74328.0,2.95,1.63,1.63,0,*71
1502096861.66,50668,20.06,74328.0,2.95,1.97,2.01,0,*72
1502096862.88,50669,20.06,74328.0,2.95,2.21,2.21,0,*7F
1502096864.11,50670,20.06,74324.8,2.95,2.25,2.25,0,*77
1502096865.28,50671,20.06,74324.8,2.95,1.79,1.79,0,*76
1502096866.49,50672,20.06,74326.5,2.95,1.79,1.85,0,*76
1502096867.66,50673,20.06,74330.3,2.95,1.75,1.75,0,*74
1502096868.91,50674,20.06,74326.8,2.93,1.55,1.51,0,*71
1502096870.16,50675,20.0,74322.3,2.93,1.51,1.51,0,*74
1502096871.41,50676,20.06,74324.3,2.93,1.63,1.55,0,*72
1502096872.66,50677,20.06,74324.3,2.93,1.55,1.55,0,*76
1502096873.88,50678,20.06,74324.8,2.91,1.63,1.59,0,*72
1502096875.14,50679,20.06,74326.8,2.89,1.71,1.67,0,*74
1502096876.36,50680,20.0,74324.8,2.91,1.93,1.93,0,*7C
1502096877.62,50681,20.06,74324.8,2.89,1.29,1.29,0,*74
1502096878.89,50682,20.06,74324.8,2.89,1.33,1.33,0,*77
1502096880.14,50683,20.06,74330.8,2.89,1.43,1.43,0,*76
1502096881.39,50684,20.06,74330.3,2.89,1.43,1.55,0,*76
1502096882.61,50685,20.06,74328.8,2.87,1.55,1.47,0,*7D
1502096883.84,50686,20.06,74326.3,2.87,1.67,1.71,0,*7A
1502096885.02,50687,20.06,74326.8,2.87,1.79,1.83,0,*79
1502096886.26,50688,20.06,74324.5,2.87,2.17,2.17,0,*73
1502096887.51,50689,20.06,74324.3,2.89,2.05,2.01,0,*78
1502096888.75,50690,20.06,74324.5,2.85,1.89,1.89,0,*78
1502096889.98,50691,20.0,74324.0,2.87,1.93,2.01,0,*73
1502096891.2,50692,20.0,74324.3,2.87,1.47,1.47,0,*78
1502096892.44,50693,20.0,74322.8,2.87,1.29,1.29,0,*79
1502096893.66,50694,20.06,74322.0,2.85,1.43,1.41,0,*7E
1502096894.91,50695,20.06,74326.8,2.85,1.25,1.29,0,*71
1502096896.17,50696,20.0,74322.0,2.85,1.33,1.25,0,*79
1502096897.42,50697,20.06,74324.3,2.85,1.67,1.63,0,*7B
1502096898.68,50698,20.0,74324.3,2.85,1.51,1.51,0,*70
1502096899.93,50699,20.0,74326.8,2.85,1.67,1.67,0,*71
1502096901.18,50700,20.06,74324.8,2.85,1.97,2.01,0,*7C
1502096902.41,50701,20.06,74326.0,2.83,2.13,2.09,0,*7C
1502096903.65,50702,20.06,74324.8,2.83,2.13,2.13,0,*74
1502096904.88,50703,20.06,74324.5,2.83,2.13,2.17,0,*71
1502096906.12,50704,20.06,74322.5,2.83,2.17,2.13,0,*76
1502096907.35,50705,20.0,74318.5,2.87,2.13,2.13,0,*77
1502096908.6,50706,20.06,74320.3,2.85,1.67,1.67,0,*76
1502096909.83,50707,20.06,74320.3,2.83,1.29,1.29,0,*71
1502096911.04,50708,20.06,74322.5,2.83,1.13,1.05,0,*79
1502096912.31,50709,20.0,74316.0,2.81,1.09,1.09,0,*7D
1502096913.58,50710,20.0,74320.8,2.81,1.37,1.37,0,*75
1502096914.84,50711,20.06,74322.8,2.81,1.93,1.85,0,*73
1502096916.11,50712,20.0,74320.0,2.81,1.29,1.29,0,*77
1502096917.37,50713,20.06,74320.8,2.81,1.29,1.29,0,*76
1502096918.64,50714,20.06,74322.0,2.81,1.37,1.25,0,*72
1502096919.87,50715,20.06,74320.5,2.79,1.29,1.29,0,*77
1502096921.11,50716,20.06,74322.0,2.79,1.29,1.29,0,*74
1502096922.35,50717,20.06,74320.5,2.75,1.33,1.25,0,*7E
1502096923.59,50718,20.0,74320.5,2.75,1.37,1.33,0,*72
1502096924.84,50719,20.0,74318.3,2.75,1.37,1.37,0,*77
1502096926.07,50720,20.0,74318.3,2.75,1.47,1.37,0,*7A
1502096927.3,50721,20.06,74320.3,2.79,1.71,1.71,0,*70
1502096928.52,50722,20.06,74322.0,2.75,1.59,1.55,0,*73
1502096929.75,50723,20.06,74320.8,2.75,1.51,1.47,0,*79
1502096930.99,50724,20.06,74318.8,2.75,1.37,1.37,0,*79
1502096932.25,50725,20.0,74318.3,2.73,1.33,1.43,0,*79
1502096933.51,50726,20.0,74318.0,2.73,1.63,1.55,0,*78
1502096934.77,50727,20.06,74320.0,2.73,1.43,1.33,0,*7B
1502096936.02,50728,20.0,74324.0,2.73,1.51,1.51,0,*73
1502096937.29,50729,20.06,74324.3,2.73,1.55,1.51,0,*76
1502096938.51,50730,20.06,74322.8,2.73,1.43,1.41,0,*78